Moorhead, MN

5:53 PM CDT on October 16, 2017 (GMT -0500)
Moorhead Municipal

Weather History for KJKJ - May, 2013

Change the Weather History Date:

Wednesday, May 8, 2013

  Actual Average (KFAR) Record (KFAR)
Temperature  
Mean Temperature 61 °F -  
Max Temperature 71 °F 64 °F 92 °F (1934)
Min Temperature 51 °F 40 °F 22 °F (1955)
Degree Days  
Heating Degree Days 4    
Growing Degree Days 11 (Base 50)    
Moisture  
Dew Point 50 °F    
Average Humidity 71    
Maximum Humidity 94    
Minimum Humidity 38    
Precipitation  
Precipitation 0.02 in - - ()
Sea Level Pressure  
Sea Level Pressure 30.00 in    
Wind  
Wind Speed 4 mph (SE)    
Max Wind Speed 16 mph    
Max Gust Speed 10 mph    
Visibility 10 miles    
Events Rain    
Averages and records for this station are not official NWS values.
T = Trace of Precipitation, MM = Missing Value Source: NWS Daily Summary

Daily Weather History Graph

Daily Weather History Graph

Search for Another Location

Airport or City:

Trip Planner

Search our weather history database for the weather conditions in past years. The results will help you decide how hot, cold, wet, or windy it might be!

Date:

Astronomy

May. 08, 2013 Rise Set
Actual Time 6:00 AM CDT 8:46 PM CDT
Civil Twilight 5:25 AM CDT 9:21 PM CDT
Nautical Twilight 4:41 AM CDT 10:05 PM CDT
Astronomical Twilight 3:49 AM CDT 10:58 PM CDT
Moon 5:14 AM CDT (5/8) 7:42 PM CDT (5/8)
Length of Visible Light 15h 55m
Length of Day
14h 45m
Waning Crescent, 2% of the Moon is Illuminated
May 8
Waning Crescent
May 9
New
May 17
First Quarter
May 24
Full
May 31
Last Quarter

Hourly Weather History & Observations

Time (CDT) Temp. Dew Point Humidity Pressure Visibility Wind Dir Wind Speed Gust Speed Precip Events Conditions
12:15 AM 57.2 °F 46.4 °F 67% 29.93 in 10.0 mi South 8.1 mph - N/A   Clear
12:34 AM 57.2 °F 46.4 °F 67% 29.93 in 10.0 mi South 5.8 mph - N/A   Clear
12:55 AM 57.2 °F 46.4 °F 67% 29.94 in 10.0 mi South 3.5 mph - N/A   Clear
1:15 AM 57.2 °F 46.4 °F 67% 29.94 in 10.0 mi Calm Calm - N/A   Clear
1:34 AM 55.4 °F 46.4 °F 72% 29.94 in 10.0 mi Calm Calm - N/A   Clear
1:55 AM 53.6 °F 46.4 °F 77% 29.94 in 10.0 mi Calm Calm - N/A   Clear
2:15 AM 53.6 °F 48.2 °F 82% 29.93 in 10.0 mi Calm Calm - N/A   Clear
2:35 AM 51.8 °F 48.2 °F 88% 29.93 in 10.0 mi Calm Calm - N/A   Clear
2:55 AM 51.8 °F 48.2 °F 88% 29.93 in 10.0 mi Calm Calm - N/A   Mostly Cloudy
3:15 AM 51.8 °F 48.2 °F 88% 29.93 in 10.0 mi SSE 3.5 mph - N/A   Overcast
3:35 AM 53.6 °F 48.2 °F 82% 29.93 in 10.0 mi SE 4.6 mph - N/A   Overcast
3:55 AM 53.6 °F 48.2 °F 82% 29.94 in 10.0 mi SE 4.6 mph - N/A   Overcast
4:15 AM 51.8 °F 48.2 °F 88% 29.94 in 10.0 mi Calm Calm - N/A   Overcast
4:35 AM 53.6 °F 48.2 °F 82% 29.95 in 10.0 mi SSE 4.6 mph - N/A   Overcast
4:55 AM 53.6 °F 48.2 °F 82% 29.95 in 10.0 mi South 4.6 mph - N/A   Mostly Cloudy
5:14 AM 53.6 °F 48.2 °F 82% 29.96 in 10.0 mi South 3.5 mph - N/A   Scattered Clouds
5:35 AM 53.6 °F 48.2 °F 82% 29.96 in 10.0 mi Calm Calm - N/A   Clear
5:55 AM 51.8 °F 48.2 °F 88% 29.96 in 10.0 mi Calm Calm - N/A   Clear
6:14 AM 53.6 °F 50.0 °F 88% 29.96 in 10.0 mi Calm Calm - N/A   Scattered Clouds
6:35 AM 51.8 °F 50.0 °F 94% 29.96 in 7.0 mi Calm Calm - N/A Rain Rain
6:55 AM 53.6 °F 51.8 °F 94% 29.97 in 10.0 mi South 3.5 mph - N/A   Light Drizzle
7:15 AM 53.6 °F 51.8 °F 94% 29.97 in 10.0 mi SSE 4.6 mph - N/A Rain Light Rain
7:35 AM 53.6 °F 51.8 °F 94% 29.98 in 10.0 mi Calm Calm - N/A   Overcast
7:55 AM 53.6 °F 51.8 °F 94% 29.98 in 10.0 mi Calm Calm - N/A   Overcast
8:15 AM 55.4 °F 53.6 °F 94% 30.00 in 10.0 mi North 8.1 mph - N/A   Mostly Cloudy
8:35 AM 55.4 °F 51.8 °F 88% 30.00 in 10.0 mi Calm Calm - N/A   Mostly Cloudy
8:55 AM 55.4 °F 53.6 °F 94% 30.00 in 10.0 mi NE 4.6 mph - N/A   Overcast
9:15 AM 57.2 °F 53.6 °F 88% 30.00 in 10.0 mi Calm Calm - N/A   Mostly Cloudy
9:35 AM 59.0 °F 53.6 °F 82% 30.01 in 10.0 mi Calm Calm - N/A   Mostly Cloudy
9:54 AM 64.4 °F 51.8 °F 64% 30.01 in 10.0 mi Calm Calm - N/A   Scattered Clouds
10:15 AM 64.4 °F 50.0 °F 59% 30.01 in 10.0 mi Calm Calm - N/A   Clear
10:35 AM 64.4 °F 50.0 °F 59% 30.01 in 10.0 mi Calm Calm - N/A   Clear
10:54 AM 64.4 °F 48.2 °F 56% 30.01 in 10.0 mi North 8.1 mph - N/A   Clear
11:15 AM 64.4 °F 48.2 °F 56% 30.02 in 10.0 mi North 10.4 mph - N/A   Clear
11:35 AM 66.2 °F 48.2 °F 52% 30.02 in 10.0 mi NNE 11.5 mph - N/A   Clear
11:54 AM 66.2 °F 48.2 °F 52% 30.02 in 10.0 mi North 9.2 mph - N/A   Clear
12:15 PM 64.4 °F 48.2 °F 56% 30.02 in 10.0 mi NNE 10.4 mph - N/A   Clear
12:35 PM 66.2 °F 48.2 °F 52% 30.03 in 10.0 mi NNE 8.1 mph - N/A   Clear
12:54 PM 68.0 °F 48.2 °F 49% 30.02 in 10.0 mi North 8.1 mph - N/A   Clear
1:15 PM 69.8 °F 46.4 °F 43% 30.02 in 10.0 mi NNE 9.2 mph - N/A   Clear
1:34 PM 69.8 °F 46.4 °F 43% 30.02 in 10.0 mi NNE 6.9 mph - N/A   Clear
1:55 PM 69.8 °F 44.6 °F 40% 30.02 in 10.0 mi NE 3.5 mph - N/A   Clear
2:15 PM 71.6 °F 44.6 °F 38% 30.02 in 10.0 mi NNE 3.5 mph - N/A   Clear
2:34 PM 71.6 °F 44.6 °F 38% 30.01 in 10.0 mi NE 4.6 mph - N/A   Clear
2:55 PM 71.6 °F 44.6 °F 38% 30.01 in 10.0 mi Calm Calm - N/A   Clear
3:34 PM 71.6 °F 44.6 °F 38% 30.00 in 10.0 mi Calm Calm - N/A   Scattered Clouds
3:55 PM 71.6 °F 48.2 °F 43% 30.00 in 10.0 mi SSW 5.8 mph - N/A   Mostly Cloudy
4:15 PM 71.6 °F 48.2 °F 43% 30.00 in 10.0 mi South 5.8 mph - N/A   Mostly Cloudy
4:34 PM 71.6 °F 48.2 °F 43% 30.00 in 10.0 mi South 8.1 mph - N/A   Scattered Clouds
4:55 PM 71.6 °F 48.2 °F 43% 30.00 in 10.0 mi South 6.9 mph - N/A   Mostly Cloudy
5:14 PM 66.2 °F 53.6 °F 64% 30.01 in 7.0 mi SE 11.5 mph - 0.01 in Rain Light Rain
5:35 PM 64.4 °F 53.6 °F 68% 30.01 in 10.0 mi South 9.2 mph - 0.02 in Rain Light Rain
5:55 PM 64.4 °F 57.2 °F 77% 30.02 in 10.0 mi SSW 3.5 mph - 0.02 in Rain Light Rain
6:14 PM 64.4 °F 57.2 °F 77% 30.02 in 10.0 mi SSW 6.9 mph - N/A   Light Drizzle
6:35 PM 64.4 °F 57.2 °F 77% 30.02 in 10.0 mi SSW 9.2 mph - N/A   Mostly Cloudy
6:55 PM 64.4 °F 57.2 °F 77% 30.02 in 10.0 mi SSW 8.1 mph - N/A Rain Light Rain
7:14 PM 64.4 °F 55.4 °F 73% 30.02 in 10.0 mi SW 8.1 mph - N/A   Overcast
7:35 PM 64.4 °F 55.4 °F 73% 30.01 in 10.0 mi SW 9.2 mph - N/A   Mostly Cloudy
7:55 PM 64.4 °F 55.4 °F 73% 30.03 in 10.0 mi East 11.5 mph - N/A   Mostly Cloudy
8:14 PM 64.4 °F 55.4 °F 73% 30.03 in 10.0 mi East 6.9 mph 10.4 mph N/A   Mostly Cloudy
8:35 PM 62.6 °F 57.2 °F 82% 30.04 in 10.0 mi ENE 5.8 mph 9.2 mph N/A   Mostly Cloudy
8:54 PM 60.8 °F 57.2 °F 88% 30.04 in 10.0 mi SE 4.6 mph - N/A   Overcast
9:15 PM 60.8 °F 55.4 °F 82% 30.05 in 10.0 mi Calm Calm - N/A   Scattered Clouds
9:35 PM 60.8 °F 55.4 °F 82% 30.05 in 10.0 mi WSW 5.8 mph - N/A   Clear
9:54 PM 62.6 °F 55.4 °F 77% 30.05 in 10.0 mi WSW 5.8 mph - N/A   Clear
10:15 PM 60.8 °F 48.2 °F 63% 30.06 in 10.0 mi WNW 5.8 mph - N/A   Clear
10:35 PM 55.4 °F 48.2 °F 77% 30.06 in 10.0 mi NW 5.8 mph - N/A   Clear
10:54 PM 55.4 °F 53.6 °F 94% 30.07 in 10.0 mi NNE 9.2 mph - N/A   Clear
11:15 PM 57.2 °F 53.6 °F 88% 30.07 in 10.0 mi North 12.7 mph - N/A   Clear
11:35 PM 53.6 °F 44.6 °F 72% 30.07 in 10.0 mi North 15.0 mph - N/A   Clear
11:54 PM 51.8 °F 42.8 °F 71% 30.07 in 10.0 mi North 16.1 mph - N/A   Clear